www.pogodaiklimat.ru

Погода и климат >> Архив погоды >> Россия >> Якутия >> Джалинда


ПОГОДА в Джалинде

  • Прогноз погоды в Джалинде
  • Монитор погоды в Джалинде
  • Климат города

АРХИВ ПОГОДЫ в Джалинде

Время (UTC), дата Ветер
(напр.,м/с)
 
Видим.   Явления Облачность Т
(С)
Тd
(С)
f
(%)
Тe
(С)
Тes
(С)
Комфортность P
(гПа)
Po
(гПа)
Тmin
(С)
Tmax
(С)
R
(мм)
R24
(мм)
S
(см)
15 17.06 штиль 0 50 км 1/0
[Ci sp]
+6.3 -0.8 60 +6 +6 1015.6 1007.9
18 17.06 штиль 0 50 км 6/0
[Ac trans]
+4.4 -0.7 69 +4 +4 1016.3 1008.6
21 17.06 ЮЗ 3 50 км 9/9 600 м
[Sc]
+5.9 -1.7 58 +3 +3 1015.8 1009.1
00 18.06 ЮЗ 5 50 км 8/8 600 м
[Sc]
+10.5 +0.8 51 +8 +9 1017.3 1009.8 +4.4
03 18.06 ЮЗ 5 50 км 8/8 600 м
[Sc]
+12.6 +2.0 48 +11 +12 1016.0 1008.5
06 18.06 ЮЗ 5 50 км 6/4 600 м
[Cu hum Ci sp]
+16.0 +4.5 46 +15 +18 1015.2 1007.8
09 18.06 ЮЗ 3 50 км 8/5 600 м
[Cu hum Ci sp]
+16.8 +3.7 42 +17 +19 1012.7 1005.3
12 18.06 ЮЗ 5 50 км 8/6 600 м
[Cu hum Ci sp]
+18.0 +3.2 37 +18 +18 1011.6 1004.3 +18.3
15 18.06 Ю 3 50 км 10/10 600 м
[Cb cap]
+14.8 +4.8 51 +14 +14 1007.6 1000.6
18 18.06 Ю 3 50 км {ливн. осадки} 10/10 600 м
[Cb cap]
+10.9 +5.0 67 +9 +9 1007.1 999.9
21 18.06 штиль 0 50 км 10/0
[As op]
+10.8 +7.0 77 +10 +11 1004.8 997.3
00 19.06 З 1 50 км 9/3 600 м
[Cu hum Ac trans]
+12.6 +5.6 62 +13 +15 1005.4 997.9 +10.8 0.0
03 19.06 З 1 50 км 8/8 600 м
[Cu med, cong]
+14.4 +4.2 50 +15 +17 1006.2 998.9
06 19.06 50 км н/о +15.4 +4.0 46 +16 +22 1007.1 999.8
09 19.06 З 5 50 км 8/3 600 м
[Cu hum Cs]
+15.8 +2.2 40 +15 +17 1007.1 999.8
12 19.06 штиль 0 50 км 9/0
[Cs]
+15.2 +2.8 43 +15 +17 1007.4 1000.1 +16.0
15 19.06 штиль 0 50 км 9/0
[Ac trans Ci sp]
+11.9 +5.2 64 +12 +12 1007.3 999.8
18 19.06 штиль 0 50 км 9/0
[Ac trans Ci sp]
+10.9 +5.5 69 +10 +11 1006.6 999.1
21 19.06 штиль 0 50 км 10/8 600 м
[Cb cap Cs]
+7.9 +4.0 76 +7 +8 1006.6 999.0
00 20.06 штиль 0 50 км 10/8 600 м
[Cb cap As op]
+14.0 +5.3 56 +14 +14 1005.5 998.2 +7.9
03 20.06 штиль 0 50 км 10/4 600 м
[Cu med, cong As op]
+16.6 +5.1 47 +17 +18 1005.5 998.2
06 20.06 СВ 1 50 км 8/4 600 м
[Cu hum Ac trans Ci fib]
+18.0 +6.0 45 +19 +24 1005.1 997.8
09 20.06 СВ 1 50 км 4/4 600 м
[Cu hum]
+20.1 +4.4 36 +22 +25 комфорт 1004.9 997.7
12 20.06 штиль 0 50 км 4/0
[Ci sp]
+20.4 +6.0 39 +21 +23 комфорт 1004.6 997.4 +20.6
15 20.06 штиль 0 50 км 9/9 600 м
[Cb cap]
+17.0 +7.0 52 +17 +17 1003.5 996.2
18 20.06 штиль 0 50 км 9/9 600 м
[Cb cap]
+14.2 +8.0 66 +14 +14 1002.7 995.4
21 20.06 Ю 1 50 км 9/8 600 м
[Sc Ac trans Ci fib]
+14.3 +8.6 69 +15 +15 1000.2 992.9
00 21.06 штиль 0 50 км 8/4 600 м
[Sc Ac trans Ci fib]
+19.0 +12.8 67 +20 +23 998.6 991.5 +14.2
03 21.06 Ю 3 50 км 8/1 600 м
[Cu hum Ci fib]
+24.0 +15.2 58 +27 +33 жарко 997.1 990.1
06 21.06 Ю 5 50 км 9/8 600 м
[Cb cap Cs]
+27.6 +15.1 46 995.6 996.0
09 21.06 С 1 50 км {гроза, ливн. осадки} 8/6 600 м
[Cb cap Ci sp]
+25.5 +13.4 47 +28 +30 жарко 995.5 988.5
12 21.06 С 1 50 км {гроза, ливн. осадки} 8/4 600 м
[Cb cap Ac trans Ci sp]
+25.5 +11.2 41 +27 +27 жарко 996.0 989.0 +28.0 0.0
15 21.06 СВ 1 50 км 6/4 600 м
[Sc Ci sp]
+21.3 +13.5 61 +24 +24 комфорт 997.4 990.3
18 21.06 штиль 0 50 км 8/4 600 м
[Sc Ac trans Ci fib]
+19.3 +13.7 70 +21 +21 комфорт 998.8 991.3
21 21.06 ЮВ 1 50 км в посл. час крупа {ливн. осадки} 4/4 600 м
[Cb cap]
+15.6 +13.6 88 +16 +17 999.9 991.9
00 22.06 ЮВ 1 50 км {ливн. осадки} 8/8 600 м
[Cb cap]
+17.6 +15.2 86 +19 +20 998.3 991.0 +15.6 1
03 22.06 Ю 3 50 км 10/4 600 м
[Cu med, cong As op]
+22.3 +16.6 70 +27 +28 душно 996.5 989.4
06 22.06 штиль 0 50 км 10/6 600 м
[Cu med, cong As op]
+24.2 +17.1 65 +28 +29 душно 995.3 988.3
09 22.06 Ю 3 20 км дымка 10/8 600 м
[Cb cap Cs]
+25.5 +13.9 49 +28 +29 жарко 993.2 986.2
12 22.06 штиль 0 50 км 10/8 600 м
[Cb cap Cs]
+21.0 +15.1 69 +24 +24 комфорт 993.3 986.2 +25.7
15 22.06 штиль 0 20 км слабый ливневой дождь 9/9 600 м
[Cb cap]
+17.9 +15.2 84 +18 +18 993.4 986.1
18 22.06 штиль 0 50 км {ливн. осадки} 9/9 600 м
[Cb cap]
+16.0 +13.7 86 +16 +16 993.1 985.8
21 22.06 С 3 50 км 10/10 600 м
[Sc]
+11.5 +9.3 86 +10 +10 996.3 988.9
00 23.06 С 5 50 км 10/10 600 м
[Sc]
+7.2 +4.7 84 +3 +3 999.3 991.8 +7.2 0.0
03 23.06 С 7 50 км 10/10 600 м
[Sc]
+6.1 +2.4 77 +1 +1 1003.1 995.5
06 23.06 С 7 50 км 10/10 600 м
[Sc]
+7.6 +2.3 69 +3 +3 1005.8 998.2
09 23.06 С 5 50 км 10/10 600 м
[Sc]
+8.2 +1.9 64 +5 +5 1009.1 1001.5
12 23.06 СВ 5 50 км 4/3 600 м
[Sc Ci sp]
+9.5 +1.3 57 +7 +7 1011.0 1003.5 +9.7
15 23.06 штиль 0 50 км ясно +8.2 +1.9 64 +8 +8 1012.7 1005.0
18 23.06 штиль 0 50 км ясно +7.0 +1.9 70 +6 +7 1014.0 1006.3
21 23.06 штиль 0 50 км ясно +8.3 +0.9 60 +8 +10 1015.6 1007.9
00 24.06 Ю 1 50 км 1/0
[Ci fib]
+10.7 +2.3 56 +11 +17 1015.8 1008.3 +7.0
03 24.06 Ю 3 50 км 3/0
[Ci sp]
+14.2 +1.3 41 +14 +21 1014.8 1007.4
06 24.06 ЮВ 5 50 км 3/0 1500 м
[Ci sp]
+16.9 -0.4 31 +16 +21 1013.2 1005.8
09 24.06 Ю 1 50 км 3/0
[Ci sp]
+20.1 -1.1 24 +21 +27 комфорт 1011.9 1004.7
12 24.06 Ю 1 50 км 8/0
[Ci sp]
+19.6 -0.1 27 +21 +22 комфорт 1011.9 1004.7 +20.4

 

Местоположение метеостанции Джалинда (Якутия, Россия): широта 70.13 долгота 113.90 высота над уровнем моря 62 м.

В архиве по умолчанию представлена погода в Джалинде за последнюю неделю. Архивные данные за месяц целиком и за предыдущие месяцы, начиная с января 2011 года, Вы можете получить, выбрав интересующий диапазон дат из раскрывающегося списка и нажав кнопку "Ввод!".

Внимание! Время в таблицах - всемирное. Для получения местного времени необходимо прибавить поправку, которая в Джалинде равна 9 ч.

Смотрите также архив погоды в соседних городах и на ближайших метеорологических станциях:

Погода в Оленеке (Якутия, Россия) (191 км)
Погода в Саскылахе (Якутия, Россия) (205 км)
Погода в Сухане (Якутия, Россия) (241 км)
Погода в Анабаре (Якутия, Россия) (344 км)
Погода в Усть-Оленеке (Якутия, Россия) (380 км)
Погода в Полярном (Якутия, Россия) (383 км)
Погода в Ярольине (Якутия, Россия) (399 км)
Погода в Тюмяти (Якутия, Россия) (400 км)
Погода в Джарджане (Якутия, Россия) (424 км)
Погода в Шелагонцах (Якутия, Россия) (432 км)

Пояснения к столбцам:

Ветер - указаны скорость ветра в м/с - средняя за 10 мин, порывы в срок и между сроками (в фигурных скобках) и направление, откуда дует ветер: С - северный, СВ - северо-восточный, В - восточный, ЮВ - юго-восточный, Ю - южный, ЮЗ - юго-западный, З - западный, СЗ - северо-западный.
Видимость - горизонтальная дальность видимости в метрах или километрах. При видимости от 1 до 10 км при отсутствии осадков обычно наблюдается дымка, при ухудшении видимости до 1 км и менее - туман. В сухую погоду видимость может ухудшаться дымом, пылью или мглою.
Явления - указаны атмосферные явления, наблюдавшиеся в срок или в последний час перед сроком; фигурными скобками обозначены явления, наблюдавшиеся между сроками (за 1-3 часа до срока); квадратными скобками обозначены град или гололедные отложения с указанием их диаметра в мм.
Облачность - указаны через наклонную черту общая и нижняя облачность в баллах и высота нижней границы облаков в метрах; квадратными скобками обозначены формы облаков: Ci - перистые, Cs - перисто-слоистые, Cc - перисто-кучевые, Ac - высококучевые, As - высокослоистые, Sc - слоисто-кучевые, Ns - слоисто-дождевые, Cu - кучевые, Cb - кучево-дождевые. Подробнее классификацию облаков см. в Атласе облаков (PDF).
T - Температура воздуха - температура, измеренная на высоте 2 м над землей.
Td - Температура точки росы - температура, при понижении до которой содержащийся в воздухе водяной пар достигнет насыщения.
f - Относительная влажность воздуха - влажноcть воздуха, измеренная на высоте 2 м над землей.
Te - Эффективная температура - температура, которую ощущает одетый по сезону человек в тени. Характеристика душности погоды. При расчете учитывается влияние влажности воздуха и скорости ветра на теплоощущения человека.
Tes - Эффективная температура на солнце - температура, которую ощущает человек, с поправкой на солнечный нагрев. Характеристика знойности погоды. Зависит от высоты солнца над горизонтом, облачности и скорости ветра. Ночью, в пасмурную погоду, а также при ветре 12 м/с и более поправка равна нулю.
P - Атмосферное давление - приведенное к уровню моря атмосферное давление.
Po - Атмосферное давление - измеренное на уровне метеостанции атмосферное давление.
Tmin - Минимальная температура - минимум температуры воздуха на высоте 2 м над землей.
Tmax - Максимальная температура - максимум температуры воздуха на высоте 2 м над землей.
R - Количество осадков - Количество выпавших осадков за период времени, мм. При наведении курсора мыши на число - период времени, за который выпало указанное количество осадков.
R24 - Количество осадков - Количество выпавших осадков за 24 часа, мм.
S - Снежный покров - Высота снежного покрова, см. При наведении курсора мыши на число - состояние снежного покрова и степень покрытия местности в баллах.